Flag for China Weather past 2 weeks in Shantou, Guangdong, China

Now
93 °F

Clear.


Feels Like: 113 °F
Forecast: 83 / 98 °F
Wind: 8 mph from Southwest

Location: Shantou Airport

Current Time: Jul 31, 2014 at 8:44:49 PM

Latest Report: Jul 31, 2014 at 8:00 PM


Visibility: 5 mi

Pressure: 29.50 "Hg

Humidity: 67%

Dew point: 81 °F

Location of ShantouLocation

Historic Weather in Shantou — Graph

°F

Shantou temperature yesterday

Maximum temperature yesterday: 97 °F (at 2:00 PM)
Minimum temperature yesterday: 79 °F (at 6:00 AM)
Average temperature yesterday: 87 °F

Past Weeks' High & Low Weather Summary

 TemperatureHumidityPressure
High100 °F (Jul 31, 3:00 PM)100% (Jul 18, 7:00 AM)29.89 "Hg (Jul 18, 7:00 AM)
Low77 °F (Jul 24, 1:00 AM)44% (Jul 22, 2:00 PM)29.36 "Hg (Jul 23, 4:00 PM)
Average86 °F78%29.70 "Hg
* Reported Jul 16 7:00 PM — Jul 31 7:00 PM, Shantou, Weather by CustomWeather, © 2014

Note: Actual official high and low records may vary slightly from our data, if they occured in-between our weather recording intervals... More about our weather records

Advertising

Shantou weather history for previous 24 hours

 ConditionsComfort  
Time TempWeatherWind HumidityBarometerVisibility
7:00 PM
Jul 31
95 °FPassing clouds.3 mph53%29.50 "Hg4 mi
6:00 PM99 °FPassing clouds.3 mph50%29.47 "HgN/A
5:00 PM100 °FPassing clouds.6 mph47%29.47 "HgN/A
4:00 PM100 °FPassing clouds.3 mph47%29.47 "HgN/A
3:00 PM100 °FPassing clouds.3 mph50%29.50 "HgN/A
2:00 PM99 °FPassing clouds.3 mph57%29.53 "HgN/A
1:00 PM97 °FPassing clouds.6 mph60%29.56 "Hg5 mi
12:00 PM95 °FPassing clouds.3 mph63%29.59 "Hg5 mi
11:00 AM91 °FClear.3 mph67%29.62 "Hg4 mi
10:00 AM90 °FPassing clouds.1 mph71%29.62 "Hg4 mi
9:00 AM88 °FPassing clouds.3 mph75%29.65 "Hg5 mi
8:00 AM86 °FFog.1 mph79%29.65 "Hg3 mi
7:00 AM84 °FFog.1 mph84%29.65 "Hg3 mi
6:00 AM81 °FPassing clouds.No wind94%29.65 "Hg4 mi
5:00 AM81 °FPassing clouds.1 mph94%29.62 "Hg4 mi
4:00 AM81 °FPassing clouds.1 mph94%29.62 "Hg4 mi
3:00 AM82 °FPassing clouds.3 mph89%29.65 "Hg4 mi
2:00 AM82 °FPassing clouds.1 mph89%29.65 "HgN/A
1:00 AM82 °FPassing clouds.1 mph89%29.65 "HgN/A
12:00 AM82 °FPassing clouds.1 mph89%29.65 "HgN/A
11:00 PM
Jul 30
84 °FPassing clouds.1 mph84%29.68 "HgN/A
10:00 PM84 °FPassing clouds.1 mph84%29.68 "HgN/A
9:00 PM86 °FPassing clouds.3 mph79%29.68 "HgN/A
8:00 PM86 °FPassing clouds.3 mph75%29.65 "HgN/A
Weather by CustomWeather, © 2014

See weather overviewHow to use our weather pages